GW5293 Weather Reports


time (UTC)temp
C
wind
direction
speed
KPH
gust
KPH
rain 1hr
cm
rain 24hr
cm
rain mn
cm
humidity
%
barometer
mb
20260508214115 22 164 3.2 3.2 0.00 0.00 0.00 32 1011.0
20260508213614 22 257 4.8 6.4 0.00 0.00 0.00 33 1011.0
20260508213113 23 341 3.2 3.2 0.00 0.00 0.00 36 1012.0
20260508212612 23 269 0.0 4.8 0.00 0.00 0.00 33 1011.0
20260508212112 23 253 6.4 6.4 0.00 0.00 0.00 35 1012.0
20260508211611 22 78 6.4 6.4 0.00 0.00 0.00 38 1011.0
20260508211111 23 19 8.0 8.0 0.00 0.00 0.00 30 1012.0
20260508210610 23 324 0.0 3.2 0.00 0.00 0.00 40 1011.0
20260508210110 22 259 3.2 3.2 0.00 0.00 0.00 38 1011.0
20260508205609 22 44 0.0 3.2 0.00 0.00 0.00 41 1011.0
20260508205109 22 176 4.8 6.4 0.00 0.00 0.00 36 1011.0
20260508204609 22 275 4.8 4.8 0.00 0.00 0.00 39 1011.0
20260508204108 22 75 3.2 4.8 0.00 0.00 0.00 34 1012.0
20260508203607 23 295 3.2 6.4 0.00 0.00 0.00 30 1011.0
20260508203107 23 334 4.8 4.8 0.00 0.00 0.00 30 1012.0
20260508202606 22 273 0.0 3.2 0.00 0.00 0.00 36 1011.0
20260508202106 22 205 0.0 0.0 0.00 0.00 0.00 38 1011.0
20260508201606 22 71 4.8 4.8 0.00 0.00 0.00 33 1012.0
20260508201105 22 130 3.2 4.8 0.00 0.00 0.00 36 1012.0
20260508200604 21 65 4.8 6.4 0.00 0.00 0.00 37 1012.0
20260508200104 22 50 4.8 9.7 0.00 0.00 0.00 32 1012.0
20260508195604 22 304 0.0 3.2 0.00 0.00 0.00 37 1012.0
20260508195103 22 332 3.2 8.0 0.00 0.00 0.00 32 1012.0
20260508194602 22 28 3.2 6.4 0.00 0.00 0.00 32 1012.0
20260508194102 22 269 3.2 4.8 0.00 0.00 0.00 33 1013.0
20260508193601 22 65 0.0 3.2 0.00 0.00 0.00 37 1013.0
20260508193101 22 15 3.2 3.2 0.00 0.00 0.00 43 1013.0
20260508192600 22 28 0.0 3.2 0.00 0.00 0.00 33 1013.0
20260508192100 22 103 8.0 9.7 0.00 0.00 0.00 36 1013.0
20260508191559 22 183 3.2 4.8 0.00 0.00 0.00 35 1013.0
20260508191059 22 35 6.4 6.4 0.00 0.00 0.00 37 1013.0
20260508190558 22 93 3.2 4.8 0.00 0.00 0.00 29 1013.0
20260508190058 21 250 0.0 0.0 0.00 0.00 0.00 38 1013.0
20260508185558 22 306 3.2 4.8 0.00 0.00 0.00 36 1013.0
20260508185057 22 323 0.0 6.4 0.00 0.00 0.00 31 1013.0
20260508184557 22 92 6.4 8.0 0.00 0.00 0.00 32 1013.0
20260508184056 22 260 3.2 4.8 0.00 0.00 0.00 33 1014.0
20260508183555 22 320 0.0 3.2 0.00 0.00 0.00 42 1014.0
20260508183055 21 28 3.2 3.2 0.00 0.00 0.00 38 1014.0
20260508182554 21 42 6.4 6.4 0.00 0.00 0.00 37 1014.0
20260508182054 22 44 6.4 6.4 0.00 0.00 0.00 32 1014.0
20260508181553 22 273 3.2 8.0 0.00 0.00 0.00 35 1014.0
20260508181053 22 304 3.2 4.8 0.00 0.00 0.00 43 1014.0
20260508180552 22 172 4.8 4.8 0.00 0.00 0.00 38 1014.0
20260508180052 21 277 3.2 4.8 0.00 0.00 0.00 33 1014.0
20260508175551 22 288 3.2 4.8 0.00 0.00 0.00 34 1014.0
20260508175051 22 336 0.0 3.2 0.00 0.00 0.00 40 1014.0
20260508174551 22 11 3.2 3.2 0.00 0.00 0.00 28 1014.0
20260508174050 22 265 3.2 3.2 0.00 0.00 0.00 35 1014.0
20260508173549 22 321 0.0 3.2 0.00 0.00 0.00 36 1014.0
20260508173049 21 123 3.2 3.2 0.00 0.00 0.00 29 1014.0
20260508172548 21 293 4.8 6.4 0.00 0.00 0.00 27 1015.0
20260508172048 21 207 0.0 0.0 0.00 0.00 0.00 34 1014.0
20260508171547 21 57 0.0 3.2 0.00 0.00 0.00 35 1015.0
20260508171047 20 61 4.8 4.8 0.00 0.00 0.00 38 1015.0
20260508170546 20 47 4.8 4.8 0.00 0.00 0.00 42 1015.0
20260508170046 20 189 3.2 4.8 0.00 0.00 0.00 43 1015.0
20260508165545 20 178 4.8 6.4 0.00 0.00 0.00 42 1015.0
20260508165045 21 99 4.8 8.0 0.00 0.00 0.00 40 1015.0
20260508164544 21 88 6.4 8.0 0.00 0.00 0.00 35 1015.0
20260508164044 21 169 3.2 4.8 0.00 0.00 0.00 37 1015.0
20260508163543 20 275 3.2 3.2 0.00 0.00 0.00 46 1015.0
20260508163043 19 306 0.0 3.2 0.00 0.00 0.00 45 1016.0
20260508162542 20 82 4.8 4.8 0.00 0.00 0.00 36 1016.0
20260508162042 21 88 6.4 6.4 0.00 0.00 0.00 42 1016.0
20260508161541 21 283 3.2 3.2 0.00 0.00 0.00 41 1016.0
20260508161041 21 269 0.0 0.0 0.00 0.00 0.00 43 1016.0
20260508160540 21 144 3.2 4.8 0.00 0.00 0.00 43 1016.0
20260508160040 20 171 3.2 3.2 0.00 0.00 0.00 47 1016.0
20260508155539 19 190 0.0 0.0 0.00 0.00 0.00 48 1016.0
20260508155038 20 305 8.0 9.7 0.00 0.00 0.00 40 1016.0
20260508154538 21 114 3.2 4.8 0.00 0.00 0.00 42 1016.0
20260508154038 21 159 3.2 3.2 0.00 0.00 0.00 41 1016.0
20260508153537 20 25 3.2 3.2 0.00 0.00 0.00 45 1016.0
20260508153037 19 328 3.2 3.2 0.00 0.00 0.00 49 1016.0
20260508152536 20 171 3.2 4.8 0.00 0.00 0.00 46 1016.0
20260508152036 19 252 3.2 4.8 0.00 0.00 0.00 41 1016.0
20260508151535 19 160 6.4 6.4 0.00 0.00 0.00 42 1016.0
20260508151035 18 9 3.2 3.2 0.00 0.00 0.00 36 1016.0
20260508150534 18 107 4.8 4.8 0.00 0.00 0.00 41 1016.0
20260508150033 18 23 4.8 4.8 0.00 0.00 0.00 44 1016.0
20260508145533 18 155 3.2 4.8 0.00 0.00 0.00 45 1016.0
20260508145032 19 38 4.8 6.4 0.00 0.00 0.00 48 1016.0
20260508144531 17 91 3.2 4.8 0.00 0.00 0.00 48 1016.0
20260508144031 17 338 6.4 8.0 0.00 0.00 0.00 49 1016.0
20260508143531 17 4 6.4 8.0 0.00 0.00 0.00 54 1016.0
20260508143030 17 82 6.4 6.4 0.00 0.00 0.00 58 1016.0
20260508142530 17 57 0.0 3.2 0.00 0.00 0.00 56 1016.0
20260508142029 17 99 3.2 3.2 0.00 0.00 0.00 61 1016.0
20260508141529 17 7 4.8 4.8 0.00 0.00 0.00 59 1017.0
20260508141029 17 48 6.4 8.0 0.00 0.00 0.00 59 1016.0
20260508140528 17 133 3.2 3.2 0.00 0.00 0.00 60 1016.0
20260508140028 17 146 3.2 4.8 0.00 0.00 0.00 64 1016.0
20260508135527 16 4.8 4.8 0.00 0.00 0.00 65 1016.0
20260508135027 16 64 0.0 3.2 0.00 0.00 0.00 67 1017.0
20260508134526 16 85 6.4 8.0 0.00 0.00 0.00 68 1016.0
20260508134026 15 249 3.2 4.8 0.00 0.00 0.00 66 1016.0
20260508133526 15 88 3.2 4.8 0.00 0.00 0.00 68 1016.0
20260508133025 14 86 4.8 4.8 0.00 0.00 0.00 74 1016.0
20260508132525 13 343 0.0 6.4 0.00 0.00 0.00 75 1016.0
20260508132024 13 92 4.8 4.8 0.00 0.00 0.00 76 1016.0
20260508131524 12 75 4.8 6.4 0.00 0.00 0.00 77 1016.0
20260508131023 13 336 4.8 6.4 0.00 0.00 0.00 76 1016.0
20260508130522 12 145 0.0 3.2 0.00 0.00 0.00 79 1016.0
20260508130022 12 73 6.4 6.4 0.00 0.00 0.00 83 1016.0
20260508125521 11 337 3.2 3.2 0.00 0.00 0.00 82 1016.0
20260508125021 11 21 3.2 4.8 0.00 0.00 0.00 83 1016.0
20260508124520 10 5 6.4 8.0 0.00 0.00 0.00 82 1016.0
20260508124020 10 35 4.8 4.8 0.00 0.00 0.00 87 1016.0
20260508123520 9 25 4.8 4.8 0.00 0.00 0.00 88 1016.0
20260508123019 8 89 0.0 3.2 0.00 0.00 0.00 94 1016.0
20260508122518 7 56 3.2 4.8 0.00 0.00 0.00 98 1016.0
20260508122018 7 38 4.8 4.8 0.00 0.00 0.00 98 1016.0
20260508121517 7 75 4.8 4.8 0.00 0.00 0.00 98 1016.0
20260508121017 7 48 4.8 4.8 0.00 0.00 0.00 98 1016.0
20260508120517 6 85 3.2 4.8 0.00 0.00 0.00 98 1016.0
20260508120016 6 77 3.2 3.2 0.00 0.00 0.00 98 1016.0
20260508115516 6 103 4.8 4.8 0.00 0.00 0.00 98 1016.0
20260508115015 6 133 3.2 4.8 0.00 0.00 0.00 98 1016.0
20260508114515 6 123 4.8 4.8 0.00 0.00 0.00 98 1016.0
20260508114015 6 118 4.8 4.8 0.00 0.00 0.00 98 1016.0
20260508113514 6 94 3.2 4.8 0.00 0.00 0.00 98 1016.0
20260508113014 6 92 3.2 3.2 0.00 0.00 0.00 98 1016.0
20260508112513 6 33 3.2 3.2 0.00 0.00 0.00 98 1016.0
20260508112013 6 66 0.0 4.8 0.00 0.00 0.00 98 1015.0
20260508111513 5 82 3.2 4.8 0.00 0.00 0.00 98 1016.0
20260508111012 5 70 3.2 4.8 0.00 0.00 0.00 98 1015.0
20260508110512 5 71 3.2 4.8 0.00 0.00 0.00 98 1015.0
20260508110011 6 72 0.0 3.2 0.00 0.00 0.00 98 1015.0
20260508105510 6 66 3.2 3.2 0.00 0.00 0.00 98 1015.0
20260508105010 6 161 3.2 3.2 0.00 0.00 0.00 98 1015.0
20260508104510 6 237 0.0 3.2 0.00 0.00 0.00 98 1015.0
20260508104009 6 115 0.0 3.2 0.00 0.00 0.00 98 1015.0
20260508103509 6 48 3.2 3.2 0.00 0.00 0.00 98 1015.0
20260508103008 6 51 0.0 4.8 0.00 0.00 0.00 98 1015.0
20260508102508 6 84 3.2 3.2 0.00 0.00 0.00 98 1015.0
20260508102007 6 88 3.2 4.8 0.00 0.00 0.00 98 1015.0
20260508101507 6 110 3.2 4.8 0.00 0.00 0.00 98 1015.0
20260508101006 6 75 3.2 3.2 0.00 0.00 0.00 97 1015.0
20260508100506 6 79 3.2 4.8 0.00 0.00 0.00 97 1015.0
20260508100005 6 105 3.2 4.8 0.00 0.00 0.00 97 1015.0
20260508095505 6 61 3.2 3.2 0.00 0.00 0.00 97 1015.0
20260508095004 6 82 3.2 3.2 0.00 0.00 0.00 98 1015.0
20260508094504 6 47 6.4 6.4 0.00 0.00 0.00 98 1015.0
20260508094004 6 81 3.2 3.2 0.00 0.00 0.00 97 1015.0
20260508093503 6 85 3.2 4.8 0.00 0.00 0.00 98 1015.0
20260508093003 6 23 3.2 4.8 0.00 0.00 0.00 98 1015.0
20260508092503 6 21 4.8 6.4 0.00 0.00 0.00 98 1015.0
20260508092002 6 67 3.2 4.8 0.00 0.00 0.00 97 1015.0
20260508091502 6 71 3.2 3.2 0.00 0.00 0.00 97 1014.0
20260508091001 6 68 3.2 4.8 0.00 0.00 0.00 97 1014.0
20260508090501 6 87 3.2 4.8 0.00 0.00 0.00 97 1014.0
20260508090000 6 63 3.2 4.8 0.00 0.00 0.00 97 1014.0
20260508085500 6 39 4.8 4.8 0.00 0.00 0.00 97 1015.0
20260508084959 6 79 4.8 4.8 0.00 0.00 0.00 97 1014.0
20260508084459 6 84 3.2 3.2 0.00 0.00 0.00 96 1014.0
20260508083958 6 89 3.2 4.8 0.00 0.00 0.00 96 1015.0
20260508083457 6 102 4.8 4.8 0.00 0.00 0.00 96 1014.0
20260508082957 7 95 3.2 4.8 0.00 0.00 0.00 96 1014.0
20260508082457 6 81 0.0 4.8 0.00 0.00 0.00 95 1014.0
20260508081956 7 335 3.2 3.2 0.00 0.00 0.00 95 1014.0
20260508081456 7 79 4.8 4.8 0.00 0.00 0.00 95 1014.0
20260508080955 7 73 3.2 4.8 0.00 0.00 0.00 95 1014.0
20260508080455 7 35 4.8 6.4 0.00 0.00 0.00 95 1014.0
20260508075955 7 68 4.8 6.4 0.00 0.00 0.00 95 1014.0
20260508075454 7 112 4.8 4.8 0.00 0.00 0.00 95 1014.0
20260508074954 7 97 3.2 3.2 0.00 0.00 0.00 94 1014.0
20260508074453 7 69 3.2 4.8 0.00 0.00 0.00 94 1015.0
20260508073953 7 101 3.2 4.8 0.00 0.00 0.00 94 1014.0
20260508073452 7 111 3.2 6.4 0.00 0.00 0.00 94 1015.0
20260508072952 7 95 0.0 4.8 0.00 0.00 0.00 93 1015.0
20260508072451 7 127 3.2 3.2 0.00 0.00 0.00 92 1015.0
20260508071951 7 44 4.8 8.0 0.00 0.00 0.00 92 1015.0
20260508071450 7 177 4.8 6.4 0.00 0.00 0.00 92 1015.0
20260508070950 7 95 3.2 4.8 0.00 0.00 0.00 93 1014.0
20260508070449 7 104 4.8 6.4 0.00 0.00 0.00 93 1014.0
20260508065949 8 219 3.2 3.2 0.00 0.00 0.00 93 1015.0
20260508065448 8 87 3.2 4.8 0.00 0.00 0.00 94 1015.0
20260508064947 8 62 4.8 6.4 0.00 0.00 0.00 93 1015.0
20260508064447 8 72 4.8 6.4 0.00 0.00 0.00 93 1014.0
20260508063947 8 63 4.8 6.4 0.00 0.00 0.00 93 1015.0
20260508063446 8 45 4.8 4.8 0.00 0.00 0.00 93 1014.0
20260508062946 8 70 3.2 4.8 0.00 0.00 0.00 92 1014.0
20260508062446 8 40 3.2 4.8 0.00 0.00 0.00 92 1014.0
20260508061945 8 91 4.8 4.8 0.00 0.00 0.00 92 1014.0
20260508061445 8 97 4.8 6.4 0.00 0.00 0.00 90 1015.0
20260508060944 8 154 0.0 0.0 0.00 0.00 0.00 87 1014.0
20260508060444 8 110 4.8 4.8 0.00 0.00 0.00 86 1015.0
20260508055944 8 53 3.2 4.8 0.00 0.00 0.00 85 1015.0
20260508055443 8 22 3.2 4.8 0.00 0.00 0.00 86 1015.0
20260508054942 8 67 4.8 4.8 0.00 0.00 0.00 87 1014.0
20260508054441 8 72 4.8 6.4 0.00 0.00 0.00 89 1015.0
20260508053941 8 46 8.0 9.7 0.00 0.00 0.00 88 1015.0
20260508053440 8 48 3.2 4.8 0.00 0.00 0.00 89 1015.0
20260508052940 8 93 4.8 4.8 0.00 0.00 0.00 87 1015.0
20260508052439 8 77 3.2 4.8 0.00 0.00 0.00 88 1015.0
20260508051939 8 88 4.8 4.8 0.00 0.00 0.00 88 1015.0
20260508051438 8 161 3.2 4.8 0.00 0.00 0.00 87 1015.0
20260508050937 9 97 0.0 3.2 0.00 0.00 0.00 84 1015.0
20260508050437 9 125 4.8 4.8 0.00 0.00 0.00 84 1015.0
20260508045936 9 124 3.2 3.2 0.00 0.00 0.00 84 1015.0
20260508045435 10 108 3.2 3.2 0.00 0.00 0.00 85 1015.0
20260508044935 10 69 0.0 3.2 0.00 0.00 0.00 84 1014.0
20260508044434 10 224 0.0 0.0 0.00 0.00 0.00 85 1014.0
20260508043934 9 142 0.0 0.0 0.00 0.00 0.00 84 1015.0
20260508043433 9 76 3.2 3.2 0.00 0.00 0.00 87 1014.0
20260508042933 9 82 3.2 3.2 0.00 0.00 0.00 87 1014.0
20260508042432 9 89 0.0 3.2 0.00 0.00 0.00 87 1014.0
20260508041932 10 76 0.0 3.2 0.00 0.00 0.00 85 1014.0
20260508041431 10 115 3.2 3.2 0.00 0.00 0.00 85 1014.0
20260508040931 10 91 3.2 3.2 0.00 0.00 0.00 84 1014.0
20260508040431 10 104 3.2 3.2 0.00 0.00 0.00 85 1014.0
20260508035931 10 111 3.2 3.2 0.00 0.00 0.36 84 1014.0
20260508035430 10 66 3.2 3.2 0.00 0.00 0.36 85 1014.0
20260508034929 10 135 0.0 3.2 0.00 0.00 0.36 83 1014.0
20260508034429 10 64 3.2 3.2 0.00 0.00 0.36 82 1014.0
20260508033928 10 43 3.2 3.2 0.00 0.00 0.36 78 1014.0
20260508033428 10 92 3.2 3.2 0.00 0.00 0.36 77 1014.0
20260508032927 11 101 3.2 3.2 0.00 0.00 0.36 78 1014.0
20260508032427 11 71 0.0 3.2 0.00 0.00 0.36 78 1014.0
20260508031926 11 55 3.2 4.8 0.00 0.00 0.36 79 1014.0
20260508031426 11 83 3.2 3.2 0.00 0.00 0.36 79 1014.0
20260508030925 11 114 3.2 3.2 0.00 0.00 0.36 77 1014.0
20260508030425 11 60 3.2 3.2 0.00 0.00 0.36 76 1014.0
20260508025924 12 96 3.2 3.2 0.00 0.00 0.36 75 1014.0
20260508025424 12 82 3.2 3.2 0.00 0.00 0.36 75 1014.0
20260508024924 12 135 0.0 0.0 0.00 0.00 0.36 75 1014.0
20260508024423 12 135 0.0 0.0 0.00 0.00 0.36 74 1014.0
20260508023922 12 135 0.0 0.0 0.00 0.00 0.36 73 1014.0
20260508023422 12 130 0.0 0.0 0.00 0.00 0.36 73 1014.0
20260508022921 12 222 0.0 0.0 0.00 0.00 0.36 77 1014.0
20260508022421 12 229 0.0 3.2 0.00 0.00 0.36 87 1014.0
20260508021920 12 253 0.0 3.2 0.00 0.00 0.36 88 1014.0
20260508021420 12 217 0.0 0.0 0.00 0.00 0.36 85 1014.0
20260508020919 12 84 0.0 3.2 0.00 0.00 0.36 84 1014.0
20260508020418 12 86 0.0 3.2 0.00 0.00 0.36 84 1014.0
20260508015918 12 84 3.2 3.2 0.00 0.00 0.36 86 1013.0
20260508015418 12 66 0.0 3.2 0.00 0.00 0.36 85 1013.0
20260508014917 12 99 0.0 3.2 0.00 0.00 0.36 87 1013.0
20260508014417 12 106 3.2 3.2 0.00 0.00 0.36 79 1013.0
20260508013917 12 112 0.0 3.2 0.00 0.00 0.36 82 1013.0
20260508013416 12 102 3.2 3.2 0.00 0.00 0.36 81 1013.0
20260508012916 13 50 0.0 0.0 0.00 0.00 0.36 83 1013.0
20260508012415 13 242 0.0 0.0 0.00 0.00 0.36 85 1013.0
20260508011915 12 224 0.0 0.0 0.00 0.00 0.36 84 1013.0
20260508011414 13 70 0.0 3.2 0.00 0.00 0.36 83 1012.0
20260508010914 13 93 0.0 3.2 0.00 0.00 0.36 82 1012.0
20260508010413 13 60 0.0 3.2 0.00 0.00 0.36 80 1013.0
20260508005912 13 78 0.0 3.2 0.00 0.00 0.36 83 1012.0
20260508005412 13 269 0.0 0.0 0.00 0.00 0.36 81 1012.0
20260508004911 13 205 0.0 0.0 0.00 0.00 0.36 82 1012.0
20260508004411 13 113 0.0 0.0 0.00 0.00 0.36 82 1012.0
20260508003910 14 113 0.0 0.0 0.00 0.00 0.36 80 1012.0
20260508003410 14 129 0.0 0.0 0.00 0.00 0.36 79 1012.0
20260508002910 14 135 0.0 0.0 0.00 0.00 0.36 78 1012.0
20260508002409 14 224 0.0 0.0 0.00 0.00 0.36 80 1012.0
20260508001908 14 251 0.0 3.2 0.00 0.00 0.36 82 1012.0
20260508001408 15 243 3.2 3.2 0.00 0.00 0.36 78 1012.0
20260508000907 15 89 0.0 0.0 0.00 0.00 0.36 75 1012.0
20260508000407 15 238 0.0 0.0 0.00 0.00 0.36 75 1012.0
20260507235906 15 142 0.0 0.0 0.00 0.00 0.36 73 1012.0
20260507235406 15 76 0.0 3.2 0.00 0.00 0.36 75 1012.0
20260507234905 15 127 3.2 3.2 0.00 0.00 0.36 73 1012.0
20260507234404 16 43 3.2 4.8 0.00 0.00 0.36 71 1012.0
20260507233904 16 44 0.0 0.0 0.00 0.00 0.36 69 1012.0
20260507233403 16 269 0.0 0.0 0.00 0.00 0.36 67 1012.0
20260507232902 16 89 0.0 0.0 0.00 0.00 0.36 65 1012.0
20260507232402 16 62 0.0 0.0 0.00 0.00 0.36 66 1012.0
20260507231901 16 44 0.0 0.0 0.00 0.00 0.36 68 1012.0
20260507231401 16 297 0.0 0.0 0.00 0.00 0.36 64 1012.0
20260507230900 16 224 0.0 0.0 0.00 0.00 0.36 68 1012.0
20260507230359 16 269 0.0 0.0 0.00 0.00 0.36 64 1012.0
20260507225859 16 236 3.2 3.2 0.00 0.00 0.36 64 1012.0
20260507225359 16 76 3.2 3.2 0.00 0.00 0.36 66 1012.0
20260507224858 16 95 0.0 3.2 0.00 0.00 0.36 65 1012.0
20260507224358 16 96 0.0 3.2 0.00 0.00 0.36 65 1012.0
20260507223857 16 73 3.2 3.2 0.00 0.00 0.36 64 1012.0
20260507223357 17 230 0.0 0.0 0.00 0.00 0.36 64 1012.0
20260507222856 17 62 0.0 0.0 0.00 0.00 0.36 63 1012.0
20260507222355 17 269 0.0 0.0 0.00 0.00 0.36 61 1012.0
20260507221854 17 315 0.0 0.0 0.00 0.00 0.36 61 1012.0
20260507221354 17 37 0.0 0.0 0.00 0.00 0.36 62 1012.0
20260507220854 18 75 0.0 0.0 0.00 0.00 0.36 61 1012.0
20260507220353 18 50 0.0 0.0 0.00 0.00 0.36 61 1012.0
20260507215852 18 38 0.0 0.0 0.00 0.00 0.36 63 1012.0
20260507215352 18 160 4.8 4.8 0.00 0.00 0.36 64 1012.0
20260507214851 17 135 3.2 4.8 0.00 0.00 0.36 60 1012.0
20260507214350 18 28 3.2 3.2 0.00 0.00 0.36 58 1012.0